CW1411 Weather Reports


Display with metric or nautical units.
time (UTC)temp
F
wind
direction
speed
MPH
gust
MPH
rain 1hr
in
rain 24hr
in
rain mn
in
humidity
%
barometer
mb
20170526092000 53 13 0.0 3.0 0.03 0.34 0.04 94 999.2
20170526091454 53 15 0.0 1.0 0.02 0.33 0.03 94 999.0
20170526090946 53 15 0.0 3.0 0.02 0.33 0.03 94 998.9
20170526090432 53 15 0.0 3.0 0.03 0.33 0.03 94 998.8
20170526085932 53 15 0.0 1.0 0.03 0.33 0.03 94 998.7
20170526085423 53 15 0.0 0.0 0.02 0.32 0.02 94 998.6
20170526084902 53 15 0.0 0.0 0.02 0.32 0.02 94 998.6
20170526084356 53 15 0.0 0.0 0.02 0.32 0.02 94 998.5
20170526083853 53 15 0.0 0.0 0.01 0.31 0.02 94 998.5
20170526083354 53 14 0.0 0.0 0.01 0.31 0.01 94 998.5
20170526082851 53 14 0.0 0.0 0.01 0.31 0.01 94 998.4
20170526082352 53 15 0.0 2.0 0.01 0.31 0.01 94 998.3
20170526081850 53 14 0.0 2.0 0.01 0.31 0.01 94 998.2
20170526081338 53 15 0.0 0.0 0.01 0.31 0.01 94 998.4
20170526080828 53 15 0.0 2.0 0.01 0.31 0.01 94 998.2
20170526080330 53 15 0.0 2.0 0.00 0.30 0.00 94 998.2
20170526075830 53 15 0.0 2.0 0.00 0.30 0.00 94 998.3
20170526075326 53 15 0.0 2.0 0.00 0.30 0.00 94 998.4
20170526074810 53 15 0.0 0.0 0.00 0.30 0.00 94 998.6
20170526074256 53 15 0.0 1.0 0.00 0.30 0.00 94 998.6
20170526073754 53 15 0.0 2.0 0.00 0.30 0.00 94 998.7
20170526073252 53 15 0.0 2.0 0.00 0.30 0.00 94 998.8
20170526072752 53 5 0.0 3.0 0.00 0.30 0.00 94 998.7
20170526072231 53 5 0.0 4.0 0.00 0.30 0.00 94 998.9
20170526071729 53 15 0.0 0.0 0.00 0.30 0.00 94 999.0
20170526071230 53 9 0.0 0.0 0.00 0.30 0.00 94 999.1
20170526070706 53 9 0.0 0.0 0.00 0.30 0.00 94 999.1
20170526070206 53 9 0.0 0.0 0.00 0.30 0.00 94 999.1
20170526065700 54 9 0.0 1.0 0.00 0.30 0.00 94 999.2
20170526065155 54 9 0.0 1.0 0.00 0.30 0.00 94 999.4
20170526064656 54 9 1.0 4.0 0.00 0.30 0.00 94 999.4
20170526064156 54 9 1.0 7.0 0.00 0.30 0.00 94 999.6
20170526063652 54 10 1.0 7.0 0.00 0.30 0.00 94 999.6
20170526063148 54 10 0.0 4.0 0.00 0.30 0.00 94 999.7
20170526062648 54 10 0.0 4.0 0.00 0.30 0.00 94 999.7
20170526062148 54 9 1.0 5.0 0.00 0.30 0.00 94 999.7
20170526061650 54 10 1.0 5.0 0.00 0.30 0.00 94 999.7
20170526061148 54 9 0.0 4.0 0.00 0.30 0.00 94 999.6
20170526060646 54 9 0.0 2.0 0.00 0.30 0.00 94 999.6
20170526060147 54 5 0.0 2.0 0.00 0.30 0.00 94 999.6
20170526055648 54 9 0.0 2.0 0.00 0.30 0.00 94 999.5
20170526055145 54 9 0.0 2.0 0.00 0.30 0.00 94 999.5
20170526054646 54 9 0.0 3.0 0.00 0.30 0.00 94 999.5
20170526054142 54 9 0.0 3.0 0.00 0.30 0.00 94 999.6
20170526053618 54 5 0.0 2.0 0.00 0.30 0.00 94 999.7
20170526053104 54 9 0.0 3.0 0.00 0.30 0.00 94 999.8
20170526052553 54 9 0.0 3.0 0.00 0.30 0.00 94 999.8
20170526052042 55 17 0.0 1.0 0.00 0.30 0.00 94 999.8
20170526051535 55 17 0.0 0.0 0.00 0.30 0.00 94 1000.0
20170526051035 55 0 0.0 0.0 0.00 0.30 0.00 94 1000.0
20170526050525 55 0 0.0 1.0 0.00 0.30 0.00 94 1000.1
20170526050025 55 16 0.0 1.0 0.00 0.30 0.00 93 1000.2
20170526045525 55 15 0.0 3.0 0.00 0.30 0.00 94 1000.3
20170526045014 55 15 0.0 3.0 0.00 0.30 0.00 94 1000.2
20170526044504 55 16 0.0 0.0 0.00 0.30 0.00 94 1000.3
20170526044004 55 16 0.0 1.0 0.00 0.30 0.00 94 1000.3
20170526043459 55 16 0.0 1.0 0.00 0.30 0.00 94 1000.4
20170526042956 55 15 0.0 1.0 0.00 0.30 0.00 94 1000.6
20170526042450 55 16 0.0 0.0 0.00 0.30 0.00 94 1000.6
20170526041942 55 15 0.0 1.0 0.00 0.30 0.00 94 1000.4
20170526041441 55 15 0.0 1.0 0.00 0.30 0.00 94 1000.5
20170526040942 55 15 0.0 1.0 0.00 0.30 0.00 94 1000.5
20170526040437 55 15 0.0 1.0 0.00 0.30 0.00 94 1000.6
20170526035925 55 15 0.0 3.0 0.00 0.30 0.30 93 1000.5
20170526035407 55 15 0.0 3.0 0.00 0.30 0.30 93 1000.4
20170526034904 55 10 0.0 3.0 0.00 0.30 0.30 93 1000.3
20170526034401 55 14 0.0 4.0 0.00 0.30 0.30 93 1000.3
20170526033857 55 5 0.0 6.0 0.00 0.30 0.30 93 1000.5
20170526033403 55 15 0.0 6.0 0.00 0.30 0.30 94 1000.5
20170526032856 56 9 0.0 2.0 0.00 0.30 0.30 94 1000.5
20170526032353 56 9 0.0 3.0 0.00 0.30 0.30 94 1000.6
20170526031853 56 9 0.0 3.0 0.00 0.30 0.30 94 1000.5
20170526031347 56 10 0.0 3.0 0.00 0.30 0.30 94 1000.6
20170526030842 56 10 0.0 3.0 0.00 0.30 0.30 94 1000.6
20170526030341 55 10 0.0 2.0 0.00 0.30 0.30 94 1000.6
20170526025819 55 10 0.0 1.0 0.00 0.30 0.30 93 1000.5
20170526025319 55 10 0.0 1.0 0.00 0.30 0.30 93 1000.7
20170526024801 55 10 0.0 2.0 0.00 0.30 0.30 93 1000.7
20170526024300 55 10 0.0 2.0 0.00 0.30 0.30 93 1001.0
20170526023758 55 10 0.0 0.0 0.00 0.30 0.30 93 1001.2
20170526023254 55 10 0.0 1.0 0.00 0.30 0.30 93 1001.3
20170526022754 55 10 0.0 1.0 0.00 0.30 0.30 93 1001.3
20170526022256 56 10 0.0 0.0 0.00 0.30 0.30 93 1001.5
20170526021749 56 10 0.0 3.0 0.00 0.30 0.30 93 1001.7
20170526021230 56 10 0.0 3.0 0.00 0.30 0.30 93 1001.7
20170526020720 56 10 0.0 3.0 0.00 0.30 0.30 93 1001.6
20170526020220 56 10 1.0 3.0 0.00 0.30 0.30 93 1001.7
20170526015704 56 10 0.0 3.0 0.00 0.30 0.30 93 1001.7
20170526015200 56 10 0.0 3.0 0.00 0.30 0.30 93 1001.6
20170526014659 56 10 0.0 3.0 0.00 0.30 0.30 93 1001.7
20170526014159 56 11 0.0 1.0 0.00 0.30 0.30 93 1002.1
20170526013655 56 10 0.0 1.0 0.00 0.30 0.30 93 1002.2
20170526013150 56 10 0.0 0.0 0.00 0.30 0.30 93 1002.0
20170526012645 56 10 0.0 0.0 0.01 0.30 0.30 93 1002.0
20170526012147 56 10 0.0 0.0 0.01 0.30 0.30 93 1002.1
20170526011646 56 10 0.0 0.0 0.01 0.30 0.30 93 1002.1
20170526011146 56 11 0.0 0.0 0.02 0.30 0.30 93 1002.2
20170526010643 56 10 0.0 0.0 0.02 0.30 0.30 93 1002.2
20170526010145 57 10 0.0 2.0 0.02 0.30 0.30 93 1002.1
20170526005645 57 10 0.0 4.0 0.02 0.30 0.30 93 1002.2
20170526005134 57 11 1.0 4.0 0.02 0.30 0.30 93 1002.1
20170526004634 57 10 1.0 5.0 0.02 0.30 0.30 93 1002.0
20170526004134 57 10 1.0 5.0 0.02 0.30 0.30 93 1002.0
20170526003629 57 11 1.0 4.0 0.02 0.30 0.30 93 1001.9
20170526003129 57 9 0.0 3.0 0.02 0.30 0.30 93 1002.0
20170526002631 57 10 1.0 4.0 0.01 0.29 0.29 93 1001.9
20170526002119 58 9 1.0 4.0 0.01 0.29 0.29 93 1001.9
20170526001619 58 9 0.0 3.0 0.01 0.29 0.29 93 1002.0
20170526001121 58 9 0.0 2.0 0.00 0.28 0.28 93 1002.0
20170526000616 58 9 0.0 2.0 0.00 0.28 0.28 93 1002.1
20170526000116 58 9 0.0 0.0 0.00 0.28 0.28 93 1002.1
20170525235616 58 9 0.0 0.0 0.01 0.28 0.28 93 1002.1
20170525235117 58 9 0.0 0.0 0.01 0.28 0.28 93 1002.0
20170525234621 58 9 0.0 0.0 0.01 0.28 0.28 93 1001.9
20170525234113 58 10 0.0 0.0 0.02 0.28 0.28 93 1001.9
20170525233608 58 9 0.0 0.0 0.02 0.28 0.28 93 1001.9
20170525233103 58 9 0.0 0.0 0.02 0.28 0.28 93 1001.9
20170525232559 58 9 0.0 0.0 0.02 0.28 0.28 93 1001.9
20170525232058 58 9 0.0 0.0 0.02 0.28 0.28 93 1001.9
20170525231556 58 10 0.0 0.0 0.02 0.28 0.28 93 1001.5
20170525231054 58 9 0.0 0.0 0.02 0.28 0.28 93 1001.7
20170525230554 58 9 0.0 0.0 0.02 0.28 0.28 93 1001.9
20170525230048 58 9 0.0 0.0 0.02 0.28 0.28 93 1001.7
20170525225540 58 9 0.0 0.0 0.01 0.27 0.27 93 1001.7
20170525225039 58 9 0.0 0.0 0.01 0.27 0.27 93 1001.8
20170525224540 58 5 0.0 0.0 0.01 0.27 0.27 93 1001.7
20170525224019 58 9 0.0 0.0 0.01 0.26 0.26 93 1001.5
20170525223520 58 9 0.0 0.0 0.02 0.26 0.26 93 1001.4
20170525223019 58 10 0.0 0.0 0.02 0.26 0.26 93 1001.5
20170525222521 58 9 0.0 0.0 0.03 0.26 0.26 93 1001.4
20170525222010 58 9 0.0 0.0 0.04 0.26 0.26 93 1001.0
20170525221511 58 9 0.0 4.0 0.05 0.26 0.26 93 1001.0
20170525221002 58 9 0.0 4.0 0.06 0.26 0.26 92 1000.6
20170525220459 58 10 1.0 3.0 0.06 0.26 0.26 93 1000.6
20170525220000 58 9 1.0 4.0 0.08 0.26 0.26 93 1000.6
20170525215459 58 9 0.0 4.0 0.08 0.26 0.26 92 1001.0
20170525214958 58 9 0.0 0.0 0.09 0.26 0.26 92 1001.5
20170525214500 58 9 0.0 1.0 0.10 0.26 0.26 92 1001.7
20170525213943 58 9 0.0 1.0 0.11 0.25 0.25 92 1001.8
20170525213442 58 9 0.0 0.0 0.10 0.24 0.24 92 1001.9
20170525212936 58 9 0.0 1.0 0.11 0.24 0.24 92 1002.0
20170525212428 58 9 0.0 1.0 0.11 0.23 0.23 92 1002.0
20170525211859 58 9 0.0 0.0 0.11 0.22 0.22 92 1002.0
20170525211400 58 10 0.0 0.0 0.11 0.21 0.21 92 1002.3
20170525210858 58 9 0.0 0.0 0.11 0.20 0.20 92 1002.1
20170525210400 58 9 0.0 0.0 0.11 0.19 0.19 92 1002.1
20170525205859 58 9 0.0 2.0 0.11 0.18 0.18 92 1001.9
20170525205400 58 9 0.0 2.0 0.11 0.17 0.18 92 1001.8
20170525204859 58 9 0.0 0.0 0.10 0.16 0.16 92 1001.9
20170525204358 58 10 0.0 3.0 0.09 0.15 0.16 92 1002.0
20170525203903 58 10 0.0 3.0 0.08 0.14 0.14 92 1002.0
20170525203357 58 9 1.0 4.0 0.08 0.14 0.14 92 1002.2
20170525202856 58 9 0.0 4.0 0.07 0.13 0.13 92 1002.2
20170525202351 58 9 0.0 2.0 0.06 0.12 0.12 92 1002.3
20170525201848 58 10 0.0 3.0 0.05 0.11 0.11 92 1002.5
20170525201349 58 9 0.0 3.0 0.04 0.10 0.10 91 1002.7
20170525200851 58 10 0.0 2.0 0.04 0.09 0.09 91 1002.7
20170525200346 58 9 0.0 4.0 0.03 0.08 0.08 91 1002.8
20170525195845 58 9 0.0 4.0 0.02 0.07 0.07 91 1002.8
20170525195346 58 9 0.0 2.0 0.01 0.06 0.06 91 1003.0
20170525194818 58 9 0.0 5.0 0.01 0.06 0.06 91 1003.0
20170525194300 58 10 1.0 5.0 0.02 0.06 0.06 91 1003.2
20170525193800 58 9 0.0 5.0 0.02 0.06 0.06 91 1003.1
20170525193300 57 9 0.0 3.0 0.02 0.06 0.06 91 1003.2
20170525192744 57 10 0.0 3.0 0.02 0.06 0.06 91 1003.3
20170525192242 57 10 0.0 5.0 0.02 0.06 0.06 91 1003.3
20170525191732 57 9 0.0 5.0 0.02 0.06 0.06 91 1003.4
20170525191225 57 10 1.0 4.0 0.03 0.06 0.06 91 1003.3
20170525190713 57 9 1.0 5.0 0.02 0.05 0.05 91 1003.3
20170525190214 57 9 1.0 5.0 0.02 0.05 0.05 90 1003.4
20170525185712 57 9 1.0 6.0 0.02 0.05 0.05 90 1003.4
20170525185211 57 9 1.0 6.0 0.03 0.05 0.05 91 1003.3
20170525184708 57 9 1.0 6.0 0.02 0.04 0.05 90 1003.3
20170525184202 57 9 2.0 6.0 0.02 0.04 0.04 90 1003.4
20170525183659 57 5 1.0 6.0 0.02 0.04 0.04 90 1003.5
20170525183201 57 9 0.0 5.0 0.02 0.04 0.04 90 1003.6
20170525182659 57 9 0.0 4.0 0.02 0.04 0.04 90 1003.7
20170525182158 57 9 0.0 4.0 0.02 0.04 0.04 90 1003.8
20170525181656 57 9 1.0 4.0 0.03 0.04 0.04 89 1003.9
20170525181146 57 9 1.0 5.0 0.02 0.03 0.03 89 1003.9
20170525180639 57 9 0.0 4.0 0.02 0.03 0.03 89 1003.9
20170525180138 57 9 0.0 0.0 0.02 0.03 0.03 89 1004.2
20170525175638 57 9 0.0 0.0 0.01 0.02 0.02 88 1004.4
20170525175132 57 9 0.0 0.0 0.02 0.02 0.02 88 1004.4
20170525174632 57 9 0.0 2.0 0.02 0.02 0.02 88 1004.4
20170525174129 57 9 0.0 4.0 0.02 0.02 0.02 87 1004.5
20170525173630 57 5 1.0 6.0 0.02 0.02 0.02 87 1004.5
20170525173130 57 5 3.0 12.0 0.02 0.02 0.02 86 1004.7
20170525172618 58 5 4.0 12.0 0.02 0.02 0.02 86 1004.4
20170525172106 58 5 2.0 7.0 0.01 0.01 0.02 85 1004.6
20170525171604 58 5 1.0 5.0 0.01 0.01 0.01 85 1004.7
20170525171104 58 9 0.0 4.0 0.01 0.01 0.01 84 1004.9
20170525170600 58 5 0.0 0.0 0.01 0.01 0.01 83 1005.0
20170525170051 58 5 0.0 3.0 0.01 0.01 0.01 83 1005.2
20170525165552 58 9 2.0 9.0 0.01 0.01 0.01 82 1004.8
20170525165038 59 9 4.0 11.0 0.00 0.00 0.00 81 1004.7
20170525164538 59 5 3.0 11.0 0.00 0.00 0.00 80 1004.4
20170525164038 59 5 2.0 6.0 0.00 0.00 0.00 79 1004.7
20170525163522 60 5 2.0 6.0 0.00 0.00 0.00 78 1004.9
20170525163011 60 5 2.0 7.0 0.00 0.00 0.00 77 1004.8
20170525162512 60 5 3.0 7.0 0.00 0.00 0.00 76 1005.1
20170525162012 60 5 2.0 9.0 0.00 0.00 0.00 74 1005.3
20170525161512 60 5 2.0 9.0 0.00 0.00 0.00 73 1005.2
20170525161010 60 5 3.0 10.0 0.00 0.00 0.00 73 1005.3
20170525160510 61 5 2.0 10.0 0.00 0.00 0.00 73 1005.3
20170525160010 61 5 2.0 6.0 0.00 0.00 0.00 73 1005.4
20170525155511 61 5 2.0 6.0 0.00 0.00 0.00 73 1005.3
20170525155007 61 5 2.0 12.0 0.00 0.00 0.00 72 1005.4
20170525154506 61 5 3.0 12.0 0.00 0.00 0.00 72 1005.4
20170525154005 61 5 4.0 11.0 0.00 0.00 0.00 72 1005.5
20170525153501 61 5 2.0 11.0 0.00 0.00 0.00 72 1005.5
20170525153002 61 9 1.0 10.0 0.00 0.00 0.00 73 1005.4
20170525152501 61 5 2.0 10.0 0.00 0.00 0.00 72 1005.5
20170525151958 61 5 3.0 7.0 0.00 0.00 0.00 72 1005.5
20170525151454 62 9 3.0 9.0 0.00 0.00 0.00 72 1005.4
20170525150948 62 5 3.0 9.0 0.00 0.00 0.00 72 1005.4
20170525150442 62 5 3.0 9.0 0.00 0.00 0.00 72 1005.2
20170525145934 62 5 1.0 5.0 0.00 0.00 0.00 71 1005.1
20170525145434 62 9 0.0 2.0 0.00 0.00 0.00 71 1005.8
20170525144935 62 5 1.0 7.0 0.00 0.00 0.00 71 1005.8
20170525144435 62 5 1.0 7.0 0.00 0.00 0.00 71 1005.6
20170525143932 62 5 1.0 5.0 0.00 0.00 0.00 71 1005.6
20170525143432 62 5 1.0 7.0 0.00 0.00 0.00 71 1005.6
20170525142926 63 9 1.0 7.0 0.00 0.00 0.00 71 1005.7
20170525142427 63 9 1.0 6.0 0.00 0.00 0.00 71 1005.7
20170525141928 63 5 1.0 5.0 0.00 0.00 0.00 70 1005.8
20170525141426 63 5 2.0 5.0 0.00 0.00 0.00 69 1005.9
20170525140923 62 5 1.0 4.0 0.00 0.00 0.00 70 1005.8
20170525140419 62 9 0.0 4.0 0.00 0.00 0.00 71 1006.0
20170525135920 62 5 0.0 3.0 0.00 0.00 0.00 73 1006.2
20170525135414 62 5 0.0 4.0 0.00 0.00 0.00 75 1006.2
20170525134917 61 5 0.0 4.0 0.00 0.00 0.00 77 1006.2
20170525134410 61 9 0.0 2.0 0.00 0.00 0.00 78 1006.2
20170525133911 61 5 0.0 3.0 0.00 0.00 0.00 79 1006.2
20170525133404 60 5 0.0 3.0 0.00 0.00 0.00 79 1006.3
20170525132906 60 9 0.0 0.0 0.00 0.00 0.00 79 1006.3
20170525132407 60 9 0.0 0.0 0.00 0.00 0.00 78 1006.4
20170525131902 60 5 0.0 0.0 0.00 0.00 0.00 80 1006.6
20170525131403 60 5 0.0 0.0 0.00 0.00 0.00 81 1006.7
20170525130857 59 5 0.0 1.0 0.00 0.00 0.00 81 1006.7
20170525130358 59 9 0.0 2.0 0.00 0.00 0.00 82 1006.6
20170525125856 59 5 0.0 2.0 0.00 0.00 0.00 83 1006.7
20170525125358 59 5 0.0 1.0 0.00 0.00 0.00 83 1006.7
20170525124856 58 5 0.0 2.0 0.00 0.00 0.00 84 1006.8
20170525124346 58 9 0.0 2.0 0.00 0.00 0.00 84 1006.9
20170525123853 58 5 0.0 1.0 0.00 0.00 0.00 85 1006.9
20170525123342 58 9 0.0 1.0 0.00 0.00 0.00 85 1007.0
20170525122843 58 9 0.0 0.0 0.00 0.00 0.00 86 1007.1
20170525122340 58 5 0.0 0.0 0.00 0.00 0.00 86 1007.3
20170525121825 58 9 0.0 0.0 0.00 0.00 0.00 85 1007.3
20170525121320 58 9 0.0 0.0 0.00 0.00 0.00 85 1007.4
20170525120814 58 9 0.0 0.0 0.00 0.00 0.00 85 1007.5
20170525120310 58 5 0.0 0.0 0.00 0.00 0.00 85 1007.4
20170525115810 58 5 0.0 0.0 0.00 0.00 0.00 84 1007.4
20170525115309 58 9 0.0 0.0 0.00 0.00 0.00 84 1007.6
20170525114802 58 5 0.0 0.0 0.00 0.00 0.00 84 1007.6
20170525114304 58 9 0.0 0.0 0.00 0.00 0.00 84 1007.6
20170525113800 58 5 0.0 0.0 0.00 0.00 0.00 84 1007.6
20170525113255 58 5 0.0 0.0 0.00 0.00 0.00 84 1007.5
20170525112755 58 5 0.0 0.0 0.00 0.00 0.00 83 1007.6
20170525112255 58 9 0.0 0.0 0.00 0.00 0.00 83 1007.6
20170525111749 58 5 0.0 0.0 0.00 0.00 0.00 83 1007.6
20170525111247 58 5 0.0 1.0 0.00 0.00 0.00 82 1007.6
20170525110739 58 5 0.0 1.0 0.00 0.00 0.00 82 1007.8
20170525110238 58 5 0.0 0.0 0.00 0.00 0.00 82 1007.9
20170525105720 58 9 0.0 0.0 0.00 0.00 0.00 82 1008.1
20170525105215 58 5 0.0 0.0 0.00 0.00 0.00 81 1008.1
20170525104705 58 9 0.0 0.0 0.00 0.00 0.00 80 1008.1
20170525104205 58 5 0.0 0.0 0.00 0.00 0.00 79 1008.0
20170525103701 58 5 0.0 0.0 0.00 0.00 0.00 78 1008.1
20170525103200 58 9 0.0 0.0 0.00 0.00 0.00 78 1008.1
20170525102707 58 5 0.0 1.0 0.00 0.00 0.00 77 1008.0
20170525102158 58 5 0.0 1.0 0.00 0.00 0.00 77 1008.1
20170525101658 58 5 0.0 0.0 0.00 0.00 0.00 76 1008.0
20170525101157 58 9 0.0 0.0 0.00 0.00 0.00 76 1008.0
20170525100657 58 9 0.0 1.0 0.00 0.00 0.00 76 1008.2
20170525100154 58 5 0.0 1.0 0.00 0.00 0.00 76 1008.1
20170525095647 58 5 0.0 0.0 0.00 0.00 0.00 75 1008.1
20170525095137 58 5 0.0 0.0 0.00 0.00 0.00 76 1008.2
20170525094618 58 5 0.0 0.0 0.00 0.00 0.00 76 1008.1
20170525094119 58 5 0.0 0.0 0.00 0.00 0.00 76 1008.2
20170525093608 58 9 0.0 0.0 0.00 0.00 0.00 76 1008.2
20170525093058 58 5 0.0 0.0 0.00 0.00 0.00 75 1008.3
20170525092556 58 5 0.0 0.0 0.00 0.00 0.00 75 1008.3